Back to catalog

STARLINK-6095

AliveCommunicationsVLEO
NORAD 56101·PAYLOAD·🇺🇸 United States

Launched Mar 29, 2023 from Cape Canaveral Space Force Station

Loading…

Next Passes (next 24 hours)

TLE

FreshSource: CelesTrak SupGP

Epoch: Sep 14, 2026, 14:01 UTC

1 56101C 23046J   26257.58451389  .00004137  00000+0  14982-3 0  2571
2 56101  43.0006 174.4769 0001685 258.4676 116.3223 15.27578259    14

Track STARLINK-6095 in real time with AllMySat

Download on the App Store